This is the latest recevied weather packets stored in our database for station/object K7DC. If no packets are shown the sender has not sent any weather packets the latest 10 day(s).
| Time | Temp. | Humidity | Pressure | Rain* | Wind** | Luminosity | Snow |
|---|---|---|---|---|---|---|---|
| 1778048544 | 15° C | 53% | 1014.7 hPa | 0 mm | - | 0 W/m² | - |
| 1778048240 | 15° C | 53% | 1014.8 hPa | 0 mm | - | 0 W/m² | - |
| 1778047938 | 15° C | 53% | 1014.8 hPa | 0 mm | - | 0 W/m² | - |
| 1778047636 | 15° C | 55% | 1014.8 hPa | 0 mm | - | 0 W/m² | - |
| 1778047333 | 15° C | 52% | 1014.8 hPa | 0 mm | - | 0 W/m² | - |
| 1778047030 | 15° C | 52% | 1014.7 hPa | 0 mm | - | 0 W/m² | - |
| 1778046727 | 15° C | 52% | 1014.5 hPa | 0 mm | - | 0 W/m² | - |
| 1778046424 | 15° C | 54% | 1014.7 hPa | 0 mm | - | 0 W/m² | - |
| 1778045817 | 15.56° C | 52% | 1014.3 hPa | 0 mm | - | 0 W/m² | - |
| 1778045516 | 15.56° C | 51% | 1014.5 hPa | 0 mm | - | 0 W/m² | - |
| 1778045214 | 15.56° C | 51% | 1014.5 hPa | 0 mm | - | 0 W/m² | - |
| 1778044912 | 16.11° C | 50% | 1014.4 hPa | 0 mm | - | 0 W/m² | - |
| 1778044609 | 16.11° C | 50% | 1014.2 hPa | 0 mm | - | 0 W/m² | - |
| 1778044305 | 16.67° C | 48% | 1014.2 hPa | 0 mm | - | 0 W/m² | - |
| 1778044003 | 16.67° C | 47% | 1014.1 hPa | 0 mm | - | 0 W/m² | - |
| 1778043700 | 16.67° C | 47% | 1014.1 hPa | 0 mm | - | 0 W/m² | - |
| 1778043396 | 16.67° C | 45% | 1014.2 hPa | 0 mm | - | 0 W/m² | - |
| 1778043093 | 16.67° C | 45% | 1013.9 hPa | 0 mm | - | 0 W/m² | - |
| 1778042791 | 16.67° C | 45% | 1013.9 hPa | 0 mm | - | 0 W/m² | - |
| 1778042488 | 16.67° C | 45% | 1014.1 hPa | 0 mm | - | 0 W/m² | - |
| 1778042185 | 16.67° C | 46% | 1014 hPa | 0 mm | - | 0 W/m² | - |
| 1778041883 | 16.67° C | 47% | 1014 hPa | 0 mm | - | 0 W/m² | - |
| 1778041582 | 17.22° C | 46% | 1013.9 hPa | 0 mm | - | 0 W/m² | - |
| 1778041279 | 17.22° C | 46% | 1013.8 hPa | 0 mm | - | 0 W/m² | - |
| 1778040978 | 17.22° C | 44% | 1013.7 hPa | 0 mm | - | 0 W/m² | - |
* Rain latest hour (hover to see other rain measurements)
** Current wind speed in m/s (hover to see current wind gust speed)